Hurricane Symbol View the latest observations near Atlantic Remnants Of Alberto.

Station ROBN4 - 8530973 - Robbins Reef, NJ Image indicating link to RSS feed of recent meteorological observations for station ROBN4


Conditions at ROBN4 as of
(4:48 pm EDT)
2048 GMT on 06/20/2024:
     

Click on the graph icon in the table below to see a time series plot of the last five days of that observation.

5-day plot - Wind Direction Wind Direction (WDIR): S ( 180 deg true )
5-day plot - Wind Speed Wind Speed (WSPD): 19.0 kts
5-day plot - Wind Gust Wind Gust (GST): 20.0 kts
5-day plot - Atmospheric Pressure Atmospheric Pressure (PRES):30.22 in
5-day plot - Air Temperature Air Temperature (ATMP): 79.9 °F
5-day plot - Wind Speed at 10 Meters Wind Speed at 10 meters (WSPD10M): 17.5 kts
5-day plot - Wind Speed at 20 Meters Wind Speed at 20 meters (WSPD20M): 19.4 kts
5-day plot -  Wind Speed, Wind Gust and Atmospheric Pressure Combined plot of Wind Speed, Gust, and Air Pressure
NOS Water Level Observation Network Water Level
Previous observations
TIME
(EDT)
5-day plot - Wind Direction
WDIR
 
5-day plot - Wind Speed
WSPD
kts
5-day plot - Wind Gust
GST
kts
5-day plot - Wave Height
WVHT
ft
5-day plot - Dominant Wave Period
DPD
sec
5-day plot - Average Wave Period
APD
sec
5-day plot - Mean Wave Direction
MWD
 
5-day plot - Atmospheric Pressure
PRES
in
5-day plot - Pressure Tendency
PTDY
in
5-day plot - Air Temperature
ATMP
°F
5-day plot - Water Temperature
WTMP
°F
5-day plot - Dew Point
DEWP
°F
5-day plot - Salinity
SAL
psu
5-day plot - Visibility
VIS
nmi
5-day plot - Tide (above MLLW)
TIDE
ft
2024-06-20 04:42 pm S 18.1 19.0----30.22- 76.6-----
2024-06-20 04:36 pm S 17.1 18.1----30.23- 80.2-----
2024-06-20 04:30 pm S 15.9 17.1----30.23- 79.2-----
2024-06-20 04:24 pm S 15.9 18.1----30.23- 79.7-----
2024-06-20 04:18 pm S 18.1 19.0----30.24- 79.0-----
2024-06-20 04:12 pm S 18.1 19.0----30.24- 79.2-----
2024-06-20 04:06 pm S 19.0 20.0----30.24- 78.8-----
2024-06-20 04:00 pm S 19.0 21.0----30.24-0.05 78.8-----
2024-06-20 03:54 pm S 19.0 20.0----30.24- 79.5-----
2024-06-20 03:48 pm S 19.0 19.0----30.24- 79.7-----
2024-06-20 03:42 pm S 18.1 19.0----30.24- 79.0-----
2024-06-20 03:36 pm S 17.1 18.1----30.24- 80.2-----
2024-06-20 03:30 pm S 17.1 18.1----30.24-------
2024-06-20 03:24 pm S 18.1 19.0----30.25-------
2024-06-20 03:18 pm S 18.1 19.0----30.25- 80.8-----
2024-06-20 03:12 pm S 18.1 19.0----30.25- 81.7-----
2024-06-20 03:06 pm S 18.1 19.0----30.26- 81.1-----
2024-06-20 03:00 pm S 18.1 19.0----30.26-0.05 81.1-----
2024-06-20 02:54 pm S 17.1 19.0----30.26- 81.3-----
2024-06-20 02:48 pm S 18.1 20.0----30.26- 81.0-----
2024-06-20 02:42 pm S 18.1 18.1----30.26- 81.3-----
2024-06-20 02:36 pm S 18.1 19.0----30.27- 81.7-----
2024-06-20 02:30 pm S 15.9 18.1----30.27- 81.1-----
2024-06-20 02:24 pm S 17.1 18.1----30.27- 81.5-----
2024-06-20 02:18 pmSSE 17.1 20.0----30.27- 81.1-----
2024-06-20 02:12 pm S 18.1 19.0----30.27- 81.0-----
2024-06-20 02:06 pm S 18.1 19.0----30.27- 80.8-----
2024-06-20 02:00 pm S 17.1 20.0----30.27-0.04 80.1-----
2024-06-20 01:54 pm S 18.1 19.0----30.28- 80.8-----
2024-06-20 01:48 pm S 18.1 20.0----30.28- 80.6-----
2024-06-20 01:42 pm S 18.1 20.0----30.28- 80.2-----
2024-06-20 01:36 pm S 18.1 20.0----30.28- 80.2-----
2024-06-20 01:30 pm S 18.1 20.0----30.28- 79.3-----
2024-06-20 01:24 pm S 19.0 19.0----30.28- 79.7-----
2024-06-20 01:18 pm S 18.1 20.0----30.28- 79.3-----
2024-06-20 01:12 pm S 15.9 18.1----30.28- 79.0-----
2024-06-20 01:06 pm S 17.1 18.1----30.29- 81.0-----
2024-06-20 01:00 pm S 17.1 17.1----30.29-0.03 79.2-----
2024-06-20 12:54 pm S 11.1 13.0----30.29- 80.4-----
2024-06-20 12:48 pm S 13.0 14.0----30.29- 80.6-----
2024-06-20 12:42 pmSSE 9.9 13.0----30.29- 82.2-----
2024-06-20 12:36 pm S 8.9 9.9----30.29- 82.9-----
2024-06-20 12:30 pm S 7.0 8.9----30.30- 82.8-----
2024-06-20 12:24 pm S 8.9 11.1----30.30- 82.9-----
2024-06-20 12:18 pm S 7.0 11.1----30.30- 83.8-----
2024-06-20 12:12 pm S 7.0 8.0----30.30- 81.9-----
2024-06-20 12:06 pm S 7.0 8.0----30.31- 82.6-----
2024-06-20 12:00 pm S 8.0 8.9----30.31-0.01 82.9-----
2024-06-20 11:54 am S 8.0 8.9----30.31- 82.0-----
2024-06-20 11:48 am S 8.0 11.1----30.31- 82.2-----
2024-06-20 11:42 am S 8.0 9.9----30.31- 81.1-----
2024-06-20 11:36 am S 8.9 9.9----30.31- 81.5-----
2024-06-20 11:30 amSSE 7.0 8.0----30.31- 80.6-----
2024-06-20 11:24 amSSE 6.0 7.0----30.31- 81.0-----
2024-06-20 11:18 amSSE 7.0 8.0----30.32- 80.6-----
2024-06-20 11:12 amSSE 6.0 7.0----30.32- 79.9-----
2024-06-20 11:06 amSSE 6.0 6.0----30.32- 80.1-----
2024-06-20 11:00 am SE 5.1 6.0----30.32+0.00 79.9-----
2024-06-20 10:54 amSSE 5.1 6.0----30.32- 79.3-----
2024-06-20 10:48 amSSE 5.1 6.0----30.32- 79.5-----
2024-06-20 10:42 amSSE 4.1 7.0----30.32- 79.5-----
2024-06-20 10:36 amSSE 6.0 7.0----30.32- 78.6-----
2024-06-20 10:30 amSSE 5.1 5.1----30.32- 78.8-----
2024-06-20 10:24 amSSE 4.1 5.1----30.32- 79.0-----
2024-06-20 10:18 amSSE 2.9 5.1----30.32- 78.6-----
2024-06-20 10:12 amSSE 4.1 5.1----30.32- 78.1-----
2024-06-20 10:06 amSSE 2.9 4.1----30.32- 77.4-----
2024-06-20 10:00 amSSE 4.1 5.1----30.32+0.00 77.0-----
2024-06-20 09:54 am S 4.1 5.1----30.32- 76.8-----
2024-06-20 09:48 amSSW 1.9 2.9----30.32- 77.2-----
2024-06-20 09:42 am SW 2.9 5.1----30.32- 77.2-----
2024-06-20 09:36 am S 2.9 4.1----30.32- 76.3-----
2024-06-20 09:30 am S 2.9 5.1----30.32- 76.3-----
2024-06-20 09:24 am SW 2.9 5.1----30.32- 76.6-----
2024-06-20 09:18 amSSW 2.9 5.1----30.32- 75.6-----
2024-06-20 09:12 amSSW 4.1 5.1----30.32- 74.8-----
2024-06-20 09:06 am S 2.9 7.0----30.32- 74.5-----
2024-06-20 09:00 am W 7.0 8.0----30.32+0.01 77.2-----
2024-06-20 08:54 am W 7.0 8.9----30.32- 76.8-----
2024-06-20 08:48 am W 6.0 7.0----30.32- 76.6-----
2024-06-20 08:42 am W 4.1 6.0----30.32- 74.7-----
2024-06-20 08:36 am SW 1.9 2.9----30.32- 73.4-----
2024-06-20 08:30 amSSW 1.0 4.1----30.32- 73.6-----
2024-06-20 08:24 amSSW 1.9 2.9----30.32- 73.4-----
2024-06-20 08:18 amSSW 2.9 5.1----30.32- 73.4-----
2024-06-20 08:12 amSSE 4.1 5.1----30.32- 73.0-----
2024-06-20 08:06 amSSW 2.9 4.1----30.32- 73.0-----
2024-06-20 08:00 amSSW 2.9 5.1----30.32+0.02 72.7-----
2024-06-20 07:54 am SW 2.9 4.1----30.32- 72.3-----
2024-06-20 07:48 amSSW 4.1 7.0----30.32- 72.1-----
2024-06-20 07:42 am W 6.0 7.0----30.32- 73.8-----
2024-06-20 07:36 am W 5.1 6.0----30.32- 73.4-----
2024-06-20 07:30 amWSW 5.1 6.0----30.32- 73.2-----
2024-06-20 07:24 amWSW 5.1 6.0----30.32- 72.9-----
2024-06-20 07:18 am W 6.0 7.0----30.32- 72.9-----
2024-06-20 07:12 amWSW 6.0 7.0----30.31- 72.3-----
2024-06-20 07:06 am W 7.0 8.9----30.31- 72.3-----
2024-06-20 07:00 am W 7.0 8.0----30.31+0.01 72.1-----
2024-06-20 06:54 am W 8.0 9.9----30.31- 72.1-----
2024-06-20 06:48 am W 8.0 9.9----30.31- 72.0-----
2024-06-20 06:42 am W 8.0 9.9----30.31- 71.8-----
2024-06-20 06:36 am W 4.1 6.0----30.31- 71.8-----
2024-06-20 06:30 am SW 2.9 5.1----30.31- 71.2-----
2024-06-20 06:24 amSSW 2.9 5.1----30.31- 71.2-----
2024-06-20 06:18 am SW 2.9 4.1----30.31- 71.4-----
2024-06-20 06:12 am SW 2.9 5.1----30.31- 71.2-----
2024-06-20 06:06 amWSW 5.1 6.0----30.31- 71.2-----
2024-06-20 06:00 amWSW 4.1 6.0----30.31+0.00 71.1-----
2024-06-20 05:54 am W 5.1 6.0----30.31- 71.1-----
2024-06-20 05:48 amWSW 5.1 6.0----30.31- 71.1-----
2024-06-20 05:42 am W 4.1 4.1----30.31- 70.9-----
2024-06-20 05:36 am SW 2.9 4.1----30.31- 70.9-----
2024-06-20 05:30 amWSW 4.1 5.1----30.31- 71.1-----
2024-06-20 05:24 amSSW 5.1 7.0----30.31- 70.9-----
2024-06-20 05:18 amSSW 5.1 7.0----30.31- 70.9-----
2024-06-20 05:12 am S 6.0 8.0----30.31- 70.9-----
2024-06-20 05:06 am S 7.0 8.0----30.31- 70.9-----
2024-06-20 05:00 am S 7.0 8.0----30.30+0.00 70.9-----
2024-06-20 04:54 am S 7.0 7.0----30.30- 71.1-----
2024-06-20 04:48 amSSW 7.0 8.0----30.30- 70.9-----
2024-06-20 04:42 am S 8.0 8.9----30.30- 71.1-----
2024-06-20 04:36 am S 8.9 9.9----30.30- 71.1-----
2024-06-20 04:30 am S 8.9 9.9----30.30- 71.1-----
2024-06-20 04:24 am S 8.9 9.9----30.31- 71.1-----
2024-06-20 04:18 am S 8.9 8.9----30.30- 71.2-----
2024-06-20 04:12 am S 7.0 8.0----30.31- 71.2-----
2024-06-20 04:06 am S 7.0 8.0----30.30- 71.4-----
2024-06-20 04:00 am S 6.0 7.0----30.30-0.01 71.4-----
2024-06-20 03:54 am S 6.0 7.0----30.30- 71.4-----
2024-06-20 03:48 am S 6.0 6.0----30.30- 71.4-----
2024-06-20 03:42 amSSW 5.1 6.0----30.30- 71.4-----
2024-06-20 03:36 am S 5.1 5.1----30.30- 71.1-----
2024-06-20 03:30 am S 5.1 6.0----30.31- 72.0-----
2024-06-20 03:24 am S 5.1 6.0----30.31- 72.3-----
2024-06-20 03:18 am S 6.0 7.0----30.31- 72.1-----
2024-06-20 03:12 am S 5.1 6.0----30.30- 72.3-----
2024-06-20 03:06 am S 5.1 5.1----30.31- 72.3-----
2024-06-20 03:00 am S 5.1 6.0----30.31-0.02 72.1-----
2024-06-20 02:54 am S 6.0 7.0----30.31- 72.5-----
2024-06-20 02:48 am S 7.0 7.0----30.31- 72.1-----
2024-06-20 02:42 amSSW 6.0 8.0----30.31- 72.0-----
2024-06-20 02:36 am S 7.0 7.0----30.31- 72.5-----
2024-06-20 02:30 am S 7.0 7.0----30.31- 72.1-----
2024-06-20 02:24 am S 6.0 7.0----30.31- 72.9-----
2024-06-20 02:18 amSSW 6.0 6.0----30.31- 72.9-----
2024-06-20 02:12 am S 6.0 7.0----30.31- 73.2-----
2024-06-20 02:06 am S 6.0 7.0----30.31- 73.6-----
2024-06-20 02:00 amSSW 5.1 6.0----30.31-0.02 73.8-----
2024-06-20 01:54 amSSW 5.1 5.1----30.31- 73.8-----
2024-06-20 01:48 amSSW 5.1 6.0----30.31- 73.8-----
2024-06-20 01:42 am S 5.1 8.0----30.31- 73.9-----
2024-06-20 01:36 amSSW 6.0 8.0----30.31- 74.1-----
2024-06-20 01:30 am SW 6.0 7.0----30.32- 74.3-----
2024-06-20 01:24 amSSW 5.1 8.0----30.32- 74.1-----
2024-06-20 01:18 amSSW 5.1 8.0----30.32- 74.3-----
2024-06-20 01:12 am SW 5.1 6.0----30.32- 74.5-----
2024-06-20 01:06 am SW 5.1 6.0----30.32- 74.5-----
2024-06-20 01:00 am SW 5.1 7.0----30.32-0.01 74.5-----
2024-06-20 12:54 am SW 4.1 6.0----30.32- 74.7-----
2024-06-20 12:48 am SW 5.1 6.0----30.32- 74.5-----
2024-06-20 12:42 am SW 5.1 8.0----30.32- 74.7-----
2024-06-20 12:36 amSSW 7.0 8.0----30.32- 74.8-----
2024-06-20 12:30 am SW 6.0 9.9----30.32- 74.8-----
2024-06-20 12:24 am SW 7.0 8.9----30.32- 75.0-----
2024-06-20 12:18 am SW 8.0 11.1----30.32- 75.0-----
2024-06-20 12:12 am SW 7.0 8.9----30.32- 75.0-----
2024-06-20 12:06 amSSW 7.0 8.0----30.32- 75.2-----
2024-06-20 12:00 am SW 7.0 9.9----30.32+0.02 75.4-----
2024-06-19 11:54 pm SW 6.0 8.9----30.33- 75.6-----
2024-06-19 11:48 pmSSW 6.0 8.9----30.33- 75.4-----
2024-06-19 11:42 pmSSW 6.0 8.0----30.33- 75.0-----
2024-06-19 11:36 pm S 6.0 7.0----30.33- 75.6-----
2024-06-19 11:30 pmSSW 6.0 7.0----30.33- 75.2-----
2024-06-19 11:24 pmSSW 6.0 7.0----30.33- 75.2-----
2024-06-19 11:18 pmSSW 6.0 7.0----30.33- 74.7-----
2024-06-19 11:12 pmSSW 7.0 8.0----30.33- 73.8-----
2024-06-19 11:06 pm S 8.0 8.9----30.33- 72.7-----
2024-06-19 11:00 pm S 8.0 8.9----30.33+0.03 72.3-----
2024-06-19 10:54 pm S 8.9 9.9----30.33- 73.0-----
2024-06-19 10:48 pm S 8.9 8.9----30.33- 73.2-----
2024-06-19 10:42 pm S 8.9 9.9----30.33- 73.0-----
2024-06-19 10:36 pm S 9.9 9.9----30.32- 72.9-----
2024-06-19 10:30 pm S 8.9 8.9----30.32- 73.0-----
2024-06-19 10:24 pm S 8.0 8.9----30.32- 73.2-----
2024-06-19 10:18 pm S 8.0 8.0----30.32- 72.7-----
2024-06-19 10:12 pm S 8.0 8.9----30.33- 72.7-----
2024-06-19 10:06 pm S 8.0 8.9----30.33- 73.4-----
2024-06-19 10:00 pm S 8.9 9.9----30.32+0.02 74.1-----
2024-06-19 09:54 pm S 9.9 11.1----30.32- 73.9-----
2024-06-19 09:48 pm S 11.1 12.0----30.32- 73.9-----
2024-06-19 09:42 pm S 11.1 12.0----30.32- 74.1-----
2024-06-19 09:36 pm S 11.1 12.0----30.31- 74.1-----
2024-06-19 09:30 pm S 11.1 12.0----30.32- 74.8-----
2024-06-19 09:24 pm S 11.1 12.0----30.31- 74.3-----
2024-06-19 09:18 pm S 9.9 11.1----30.31- 73.6-----
2024-06-19 09:12 pm S 8.9 9.9----30.31- 73.0-----
2024-06-19 09:06 pm S 8.9 9.9----30.30- 73.4-----
2024-06-19 09:00 pm S 8.9 8.9----30.30+0.01 72.9-----
2024-06-19 08:54 pm S 8.9 9.9----30.30- 72.9-----
2024-06-19 08:48 pmSSE 9.9 12.0----30.30- 73.0-----
2024-06-19 08:42 pm S 12.0 14.0----30.30- 72.3-----
2024-06-19 08:36 pm S 14.0 15.0----30.30- 72.0-----
2024-06-19 08:30 pm S 14.0 14.0----30.30- 71.2-----
2024-06-19 08:24 pm S 14.0 14.0----30.30- 71.4-----
2024-06-19 08:18 pm S 14.0 15.0----30.30- 71.6-----
2024-06-19 08:12 pm S 13.0 14.0----30.30- 72.0-----
2024-06-19 08:06 pm S 13.0 15.0----30.30- 72.3-----
2024-06-19 08:00 pm S 14.0 14.0----30.30+0.00 73.0-----
2024-06-19 07:54 pm S 14.0 15.0----30.30- 73.4-----
2024-06-19 07:48 pm S 15.0 15.0----30.30- 73.4-----
2024-06-19 07:42 pm S 14.0 15.0----30.30- 75.0-----
2024-06-19 07:36 pmSSE 14.0 15.9----30.30- 76.8-----
2024-06-19 07:30 pmSSE 14.0 15.0----30.30- 76.6-----
2024-06-19 07:24 pmSSE 14.0 15.0----30.30- 77.0-----
2024-06-19 07:00 pmSSE 14.0 15.0----30.30-0.02 76.8-----
2024-06-19 06:54 pmSSE 14.0 15.0----30.30- 76.8-----
2024-06-19 06:48 pmSSE 14.0 14.0----30.30-------
2024-06-19 06:42 pmSSE 14.0 15.0----30.30-------
2024-06-19 06:36 pmSSE 14.0 15.0----30.29-------
2024-06-19 06:30 pmSSE 14.0 15.9----30.29- 75.4-----
2024-06-19 06:24 pmSSE 15.9 18.1----30.29- 76.8-----
2024-06-19 06:18 pm S 15.9 17.1----30.29- 73.2-----
2024-06-19 06:12 pmSSE 15.0 15.9----30.29- 76.1-----
2024-06-19 06:06 pmSSE 15.9 15.9----30.29- 77.5-----
2024-06-19 06:00 pm S 15.0 17.1----30.29-0.03 73.8-----
2024-06-19 05:54 pmSSE 15.9 17.1----30.29- 75.2-----
2024-06-19 05:48 pmSSE 15.9 18.1----30.29- 75.4-----
2024-06-19 05:42 pm S 17.1 18.1----30.29- 74.3-----
2024-06-19 05:36 pm S 18.1 18.1----30.30- 76.1-----
2024-06-19 05:30 pm S 18.1 20.0----30.30- 75.6-----
2024-06-19 05:24 pm S 19.0 19.0----30.29- 76.3-----
2024-06-19 05:18 pm S 19.0 20.0----30.30- 76.1-----
2024-06-19 05:12 pm S 18.1 19.0----30.30- 76.5-----
2024-06-19 05:06 pm S 17.1 20.0----30.30- 74.8-----
2024-06-19 05:00 pm S 19.0 21.0----30.30-0.02 75.2-----
2024-06-19 04:54 pm S 22.0 22.0----30.30- 75.2-----